Location: Unspecified
(0.0000°N, 0.0000°E)
Time: 17:23:10
(UTC+00:00)

Vanguard 3 - Pass Details

Date: 06 February 2023
Orbit: 509 x 3249 km, 33.3° (Epoch: 20 March)

Event Time Altitude Azimuth Distance (km) Brightness Sun altitude
Rises 13:14:17 0° 223° (SW) 2,681 10.1 68.5°
Reaches altitude 10° 13:16:36 10° 214° (SW) 1,722 9.4 68.1°
Maximum altitude 13:20:03 39° 144° (SE) 790 7.8 67.5°
Drops below altitude 10° 13:23:54 10° 74° (ENE) 1,923 9.0 66.8°
Sets 13:26:37 0° 66° (ENE) 3,051 9.9 66.3°
